owner,sensor,date,latitude,longitude,vertical_datum,mass_concentration_of_oxygen_in_sea_water,qcFlag 
DISL,ioos:station:DISL:BSCA:1,2016-04-01T00:00:00Z,30.3288,-87.8293,2.231,8.33,1111122 
DISL,ioos:station:DISL:BSCA:1,2016-04-01T00:30:00Z,30.3288,-87.8293,2.213,8.16,1111122 
DISL,ioos:station:DISL:BSCA:1,2016-04-01T01:00:00Z,30.3288,-87.8293,2.201,8.07,1111122 
DISL,ioos:station:DISL:BSCA:1,2016-04-01T01:30:00Z,30.3288,-87.8293,2.182,8.22,1111122 
DISL,ioos:station:DISL:BSCA:1,2016-04-01T02:00:00Z,30.3288,-87.8293,2.165,8.22,1111122 
DISL,ioos:station:DISL:BSCA:1,2016-04-01T02:30:00Z,30.3288,-87.8293,2.142,8.22,1111122 
DISL,ioos:station:DISL:BSCA:1,2016-04-01T03:00:00Z,30.3288,-87.8293,2.131,8.22,1111122 
DISL,ioos:station:DISL:BSCA:1,2016-04-01T03:30:00Z,30.3288,-87.8293,2.123,8.19,1111122 
DISL,ioos:station:DISL:BSCA:1,2016-04-01T04:00:00Z,30.3288,-87.8293,2.096,8.1,1111122 
DISL,ioos:station:DISL:BSCA:1,2016-04-01T04:30:00Z,30.3288,-87.8293,2.082,8.14,1111122 
DISL,ioos:station:DISL:BSCA:1,2016-04-01T05:00:00Z,30.3288,-87.8293,2.059,8.14,1111122 
DISL,ioos:station:DISL:BSCA:1,2016-04-01T05:30:00Z,30.3288,-87.8293,2.034,8.16,1111122 
DISL,ioos:station:DISL:BSCA:1,2016-04-01T06:00:00Z,30.3288,-87.8293,2.012,8.04,1111122 
DISL,ioos:station:DISL:BSCA:1,2016-04-01T06:30:00Z,30.3288,-87.8293,1.999,7.96,1111122 
DISL,ioos:station:DISL:BSCA:1,2016-04-01T07:00:00Z,30.3288,-87.8293,1.974,7.92,1111122 
DISL,ioos:station:DISL:BSCA:1,2016-04-01T07:30:00Z,30.3288,-87.8293,1.951,7.77,1111122 
DISL,ioos:station:DISL:BSCA:1,2016-04-01T08:00:00Z,30.3288,-87.8293,1.943,7.76,1111122 
DISL,ioos:station:DISL:BSCA:1,2016-04-01T08:30:00Z,30.3288,-87.8293,1.932,7.74,1111122 
DISL,ioos:station:DISL:BSCA:1,2016-04-01T09:00:00Z,30.3288,-87.8293,1.925,7.57,1111122 
DISL,ioos:station:DISL:BSCA:1,2016-04-01T09:30:00Z,30.3288,-87.8293,1.925,7.73,1111122 
DISL,ioos:station:DISL:BSCA:1,2016-04-01T10:00:00Z,30.3288,-87.8293,1.935,7.74,1111122 
DISL,ioos:station:DISL:BSCA:1,2016-04-01T10:30:00Z,30.3288,-87.8293,1.943,7.59,1111122 
DISL,ioos:station:DISL:BSCA:1,2016-04-01T11:00:00Z,30.3288,-87.8293,1.953,7.6,1111122 
DISL,ioos:station:DISL:BSCA:1,2016-04-01T11:30:00Z,30.3288,-87.8293,1.959,7.57,1111122 
DISL,ioos:station:DISL:BSCA:1,2016-04-01T12:00:00Z,30.3288,-87.8293,1.99,7.65,1111122 
DISL,ioos:station:DISL:BSCA:1,2016-04-01T12:30:00Z,30.3288,-87.8293,2.012,7.86,1111122 
DISL,ioos:station:DISL:BSCA:1,2016-04-01T13:00:00Z,30.3288,-87.8293,2.054,8.1,1111122 
DISL,ioos:station:DISL:BSCA:1,2016-04-01T13:30:00Z,30.3288,-87.8293,2.062,8.01,1111122 
DISL,ioos:station:DISL:BSCA:1,2016-04-01T14:00:00Z,30.3288,-87.8293,2.094,7.92,1111122 
DISL,ioos:station:DISL:BSCA:1,2016-04-01T14:30:00Z,30.3288,-87.8293,2.151,7.82,1111122 
DISL,ioos:station:DISL:BSCA:1,2016-04-01T15:00:00Z,30.3288,-87.8293,2.169,7.95,1111122 
DISL,ioos:station:DISL:BSCA:1,2016-04-01T15:30:00Z,30.3288,-87.8293,2.221,7.81,1111122 
DISL,ioos:station:DISL:BSCA:1,2016-04-01T16:00:00Z,30.3288,-87.8293,2.267,7.98,1111122 
DISL,ioos:station:DISL:BSCA:1,2016-04-01T16:30:00Z,30.3288,-87.8293,2.312,7.84,1111122 
DISL,ioos:station:DISL:BSCA:1,2016-04-01T17:00:00Z,30.3288,-87.8293,2.346,8.05,1111122 
DISL,ioos:station:DISL:BSCA:1,2016-04-01T17:30:00Z,30.3288,-87.8293,2.328,8.15,1111122 
DISL,ioos:station:DISL:BSCA:1,2016-04-01T18:00:00Z,30.3288,-87.8293,2.259,8.11,1111122 
DISL,ioos:station:DISL:BSCA:1,2016-04-01T18:30:00Z,30.3288,-87.8293,2.244,8.05,1111122 
DISL,ioos:station:DISL:BSCA:1,2016-04-01T19:00:00Z,30.3288,-87.8293,2.174,7.8,1111122 
DISL,ioos:station:DISL:BSCA:1,2016-04-01T19:30:00Z,30.3288,-87.8293,2.183,7.55,1111122 
DISL,ioos:station:DISL:BSCA:1,2016-04-01T20:00:00Z,30.3288,-87.8293,2.205,7.67,1111122 
DISL,ioos:station:DISL:BSCA:1,2016-04-01T20:30:00Z,30.3288,-87.8293,2.202,7.45,1111122 
DISL,ioos:station:DISL:BSCA:1,2016-04-01T21:00:00Z,30.3288,-87.8293,2.219,7.12,1111122 
DISL,ioos:station:DISL:BSCA:1,2016-04-01T21:30:00Z,30.3288,-87.8293,2.221,7.28,1111122 
DISL,ioos:station:DISL:BSCA:1,2016-04-01T22:00:00Z,30.3288,-87.8293,2.212,7.44,1111122 
DISL,ioos:station:DISL:BSCA:1,2016-04-01T22:30:00Z,30.3288,-87.8293,2.181,7.48,1111122 
DISL,ioos:station:DISL:BSCA:1,2016-04-01T23:00:00Z,30.3288,-87.8293,2.182,7.67,1111122 
DISL,ioos:station:DISL:BSCA:1,2016-04-01T23:30:00Z,30.3288,-87.8293,2.16,7.75,1111122 
DISL,ioos:station:DISL:BSCA:1,2016-04-02T00:00:00Z,30.3288,-87.8293,2.2,7.87,1111122 
DISL,ioos:station:DISL:BSCA:1,2016-04-02T00:30:00Z,30.3288,-87.8293,2.327,8.17,1111122 
DISL,ioos:station:DISL:BSCA:1,2016-04-02T01:00:00Z,30.3288,-87.8293,2.431,8.11,1111122 
DISL,ioos:station:DISL:BSCA:1,2016-04-02T01:30:00Z,30.3288,-87.8293,2.297,8.09,1111122 
DISL,ioos:station:DISL:BSCA:1,2016-04-02T02:00:00Z,30.3288,-87.8293,2.185,8.07,1111122 
DISL,ioos:station:DISL:BSCA:1,2016-04-02T02:30:00Z,30.3288,-87.8293,2.095,8.05,1111122 
DISL,ioos:station:DISL:BSCA:1,2016-04-02T03:00:00Z,30.3288,-87.8293,2.001,8.11,1111122 
DISL,ioos:station:DISL:BSCA:1,2016-04-02T03:30:00Z,30.3288,-87.8293,1.94,8.12,1111122 
DISL,ioos:station:DISL:BSCA:1,2016-04-02T04:00:00Z,30.3288,-87.8293,1.957,7.97,1111122 
DISL,ioos:station:DISL:BSCA:1,2016-04-02T04:30:00Z,30.3288,-87.8293,1.929,8.09,1111122 
DISL,ioos:station:DISL:BSCA:1,2016-04-02T05:00:00Z,30.3288,-87.8293,1.947,7.26,1111122 
DISL,ioos:station:DISL:BSCA:1,2016-04-02T05:30:00Z,30.3288,-87.8293,1.966,6.84,1111122 
DISL,ioos:station:DISL:BSCA:1,2016-04-02T06:00:00Z,30.3288,-87.8293,1.94,5.86,1111122 
DISL,ioos:station:DISL:BSCA:1,2016-04-02T06:30:00Z,30.3288,-87.8293,1.922,7.5,1111122 
DISL,ioos:station:DISL:BSCA:1,2016-04-02T07:00:00Z,30.3288,-87.8293,1.876,7.62,1111122 
DISL,ioos:station:DISL:BSCA:1,2016-04-02T07:30:00Z,30.3288,-87.8293,1.773,7.87,1111122 
DISL,ioos:station:DISL:BSCA:1,2016-04-02T08:00:00Z,30.3288,-87.8293,1.802,6.39,1111122 
DISL,ioos:station:DISL:BSCA:1,2016-04-02T08:30:00Z,30.3288,-87.8293,1.763,6.86,1111122 
DISL,ioos:station:DISL:BSCA:1,2016-04-02T09:00:00Z,30.3288,-87.8293,1.775,7.44,1111122 
DISL,ioos:station:DISL:BSCA:1,2016-04-02T09:30:00Z,30.3288,-87.8293,1.88,5.41,1111122 
DISL,ioos:station:DISL:BSCA:1,2016-04-02T10:00:00Z,30.3288,-87.8293,1.863,4.33,1111122 
DISL,ioos:station:DISL:BSCA:1,2016-04-02T10:30:00Z,30.3288,-87.8293,1.854,6.99,1111122 
DISL,ioos:station:DISL:BSCA:1,2016-04-02T11:00:00Z,30.3288,-87.8293,1.851,7.79,1111122 
DISL,ioos:station:DISL:BSCA:1,2016-04-02T11:30:00Z,30.3288,-87.8293,1.842,7.89,1111122 
DISL,ioos:station:DISL:BSCA:1,2016-04-02T12:00:00Z,30.3288,-87.8293,1.753,7.82,1111122 
DISL,ioos:station:DISL:BSCA:1,2016-04-02T12:30:00Z,30.3288,-87.8293,1.729,8.06,1111122 
DISL,ioos:station:DISL:BSCA:1,2016-04-02T13:00:00Z,30.3288,-87.8293,1.761,7.88,1111122 
DISL,ioos:station:DISL:BSCA:1,2016-04-02T13:30:00Z,30.3288,-87.8293,1.767,7.88,1111122 
DISL,ioos:station:DISL:BSCA:1,2016-04-02T14:00:00Z,30.3288,-87.8293,1.807,8.33,1111122 
DISL,ioos:station:DISL:BSCA:1,2016-04-02T14:30:00Z,30.3288,-87.8293,1.781,7.7,1111122 
DISL,ioos:station:DISL:BSCA:1,2016-04-02T15:00:00Z,30.3288,-87.8293,1.829,7.92,1111122 
DISL,ioos:station:DISL:BSCA:1,2016-04-02T15:30:00Z,30.3288,-87.8293,1.815,8.05,1111122 
DISL,ioos:station:DISL:BSCA:1,2016-04-02T16:00:00Z,30.3288,-87.8293,1.874,7.93,1111122 
DISL,ioos:station:DISL:BSCA:1,2016-04-02T16:30:00Z,30.3288,-87.8293,1.861,8.57,1111122 
DISL,ioos:station:DISL:BSCA:1,2016-04-02T17:00:00Z,30.3288,-87.8293,1.899,8.82,1111122 
DISL,ioos:station:DISL:BSCA:1,2016-04-02T17:30:00Z,30.3288,-87.8293,1.932,8.99,1111122 
DISL,ioos:station:DISL:BSCA:1,2016-04-02T18:00:00Z,30.3288,-87.8293,1.922,8.74,1111122 
DISL,ioos:station:DISL:BSCA:1,2016-04-02T18:30:00Z,30.3288,-87.8293,2.037,8.68,1111122 
DISL,ioos:station:DISL:BSCA:1,2016-04-02T19:00:00Z,30.3288,-87.8293,2.001,8.92,1111122 
DISL,ioos:station:DISL:BSCA:1,2016-04-02T19:30:00Z,30.3288,-87.8293,2.049,9.11,1111122 
DISL,ioos:station:DISL:BSCA:1,2016-04-02T20:00:00Z,30.3288,-87.8293,2.127,9.25,1111122 
DISL,ioos:station:DISL:BSCA:1,2016-04-02T20:30:00Z,30.3288,-87.8293,2.069,9.03,1111122 
DISL,ioos:station:DISL:BSCA:1,2016-04-02T21:00:00Z,30.3288,-87.8293,2.089,8.98,1111122 
DISL,ioos:station:DISL:BSCA:1,2016-04-02T21:30:00Z,30.3288,-87.8293,2.114,9.07,1111122 
DISL,ioos:station:DISL:BSCA:1,2016-04-02T22:00:00Z,30.3288,-87.8293,2.132,9.0,1111122 
DISL,ioos:station:DISL:BSCA:1,2016-04-02T22:30:00Z,30.3288,-87.8293,2.154,8.0,1111122 
DISL,ioos:station:DISL:BSCA:1,2016-04-02T23:00:00Z,30.3288,-87.8293,2.153,8.25,1111122 
DISL,ioos:station:DISL:BSCA:1,2016-04-02T23:30:00Z,30.3288,-87.8293,2.171,8.13,1111122 
DISL,ioos:station:DISL:BSCA:1,2016-04-03T00:00:00Z,30.3288,-87.8293,2.166,8.69,1111122 
DISL,ioos:station:DISL:BSCA:1,2016-04-03T00:30:00Z,30.3288,-87.8293,2.165,8.73,1111122 
DISL,ioos:station:DISL:BSCA:1,2016-04-03T01:00:00Z,30.3288,-87.8293,2.154,8.67,1111122 
DISL,ioos:station:DISL:BSCA:1,2016-04-03T01:30:00Z,30.3288,-87.8293,2.132,8.63,1111122 
DISL,ioos:station:DISL:BSCA:1,2016-04-03T02:00:00Z,30.3288,-87.8293,2.092,8.55,1111122 
DISL,ioos:station:DISL:BSCA:1,2016-04-03T02:30:00Z,30.3288,-87.8293,2.052,8.77,1111122 
DISL,ioos:station:DISL:BSCA:1,2016-04-03T03:00:00Z,30.3288,-87.8293,2.026,8.46,1111122 
DISL,ioos:station:DISL:BSCA:1,2016-04-03T03:30:00Z,30.3288,-87.8293,2.006,8.11,1111122 
DISL,ioos:station:DISL:BSCA:1,2016-04-03T04:00:00Z,30.3288,-87.8293,1.977,8.3,1111122 
DISL,ioos:station:DISL:BSCA:1,2016-04-03T04:30:00Z,30.3288,-87.8293,1.956,8.32,1111122 
DISL,ioos:station:DISL:BSCA:1,2016-04-03T05:00:00Z,30.3288,-87.8293,1.926,7.99,1111122 
DISL,ioos:station:DISL:BSCA:1,2016-04-03T05:30:00Z,30.3288,-87.8293,1.891,7.95,1111122 
DISL,ioos:station:DISL:BSCA:1,2016-04-03T06:00:00Z,30.3288,-87.8293,1.86,7.67,1111122 
DISL,ioos:station:DISL:BSCA:1,2016-04-03T06:30:00Z,30.3288,-87.8293,1.82,7.55,1111122 
DISL,ioos:station:DISL:BSCA:1,2016-04-03T07:00:00Z,30.3288,-87.8293,1.798,8.39,1111122 
DISL,ioos:station:DISL:BSCA:1,2016-04-03T07:30:00Z,30.3288,-87.8293,1.762,8.28,1111122 
DISL,ioos:station:DISL:BSCA:1,2016-04-03T08:00:00Z,30.3288,-87.8293,1.715,8.4,1111122 
DISL,ioos:station:DISL:BSCA:1,2016-04-03T08:30:00Z,30.3288,-87.8293,1.68,8.41,1111122 
DISL,ioos:station:DISL:BSCA:1,2016-04-03T09:00:00Z,30.3288,-87.8293,1.644,8.3,1111122 
DISL,ioos:station:DISL:BSCA:1,2016-04-03T09:30:00Z,30.3288,-87.8293,1.626,8.22,1111122 
DISL,ioos:station:DISL:BSCA:1,2016-04-03T10:00:00Z,30.3288,-87.8293,1.626,8.25,1111122 
DISL,ioos:station:DISL:BSCA:1,2016-04-03T10:30:00Z,30.3288,-87.8293,1.629,8.21,1111122 
DISL,ioos:station:DISL:BSCA:1,2016-04-03T11:00:00Z,30.3288,-87.8293,1.637,8.23,1111122 
DISL,ioos:station:DISL:BSCA:1,2016-04-03T11:30:00Z,30.3288,-87.8293,1.644,8.27,1111122 
DISL,ioos:station:DISL:BSCA:1,2016-04-03T12:00:00Z,30.3288,-87.8293,1.649,8.3,1111122 
DISL,ioos:station:DISL:BSCA:1,2016-04-03T12:30:00Z,30.3288,-87.8293,1.666,8.25,1111122 
DISL,ioos:station:DISL:BSCA:1,2016-04-03T13:00:00Z,30.3288,-87.8293,1.691,8.26,1111122 
DISL,ioos:station:DISL:BSCA:1,2016-04-03T13:30:00Z,30.3288,-87.8293,1.725,8.12,1111122 
DISL,ioos:station:DISL:BSCA:1,2016-04-03T14:00:00Z,30.3288,-87.8293,1.752,8.15,1111122 
DISL,ioos:station:DISL:BSCA:1,2016-04-03T14:30:00Z,30.3288,-87.8293,1.785,7.91,1111122 
DISL,ioos:station:DISL:BSCA:1,2016-04-03T15:00:00Z,30.3288,-87.8293,1.827,7.81,1111122 
DISL,ioos:station:DISL:BSCA:1,2016-04-03T15:30:00Z,30.3288,-87.8293,1.879,7.87,1111122 
DISL,ioos:station:DISL:BSCA:1,2016-04-03T16:00:00Z,30.3288,-87.8293,1.891,8.17,1111122 
DISL,ioos:station:DISL:BSCA:1,2016-04-03T16:30:00Z,30.3288,-87.8293,1.908,8.57,1111122 
DISL,ioos:station:DISL:BSCA:1,2016-04-03T17:00:00Z,30.3288,-87.8293,1.91,8.82,1111122 
DISL,ioos:station:DISL:BSCA:1,2016-04-03T17:30:00Z,30.3288,-87.8293,1.909,8.73,1111122 
DISL,ioos:station:DISL:BSCA:1,2016-04-03T18:00:00Z,30.3288,-87.8293,1.901,8.64,1111122 
DISL,ioos:station:DISL:BSCA:1,2016-04-03T18:30:00Z,30.3288,-87.8293,1.915,8.6,1111122 
DISL,ioos:station:DISL:BSCA:1,2016-04-03T19:00:00Z,30.3288,-87.8293,1.93,8.47,1111122 
DISL,ioos:station:DISL:BSCA:1,2016-04-03T19:30:00Z,30.3288,-87.8293,1.959,8.35,1111122 
DISL,ioos:station:DISL:BSCA:1,2016-04-03T20:00:00Z,30.3288,-87.8293,1.974,8.6,1111122 
DISL,ioos:station:DISL:BSCA:1,2016-04-03T20:30:00Z,30.3288,-87.8293,1.991,8.61,1111122 
DISL,ioos:station:DISL:BSCA:1,2016-04-03T21:00:00Z,30.3288,-87.8293,2.017,8.59,1111122 
DISL,ioos:station:DISL:BSCA:1,2016-04-03T21:30:00Z,30.3288,-87.8293,2.045,8.51,1111122 
DISL,ioos:station:DISL:BSCA:1,2016-04-03T22:00:00Z,30.3288,-87.8293,2.06,7.91,1111122 
DISL,ioos:station:DISL:BSCA:1,2016-04-03T22:30:00Z,30.3288,-87.8293,2.082,7.78,1111122 
DISL,ioos:station:DISL:BSCA:1,2016-04-03T23:00:00Z,30.3288,-87.8293,2.095,7.65,1111122 
DISL,ioos:station:DISL:BSCA:1,2016-04-03T23:30:00Z,30.3288,-87.8293,2.093,7.67,1111122 
DISL,ioos:station:DISL:BSCA:1,2016-04-04T00:00:00Z,30.3288,-87.8293,2.105,7.59,1111122 
DISL,ioos:station:DISL:BSCA:1,2016-04-04T00:30:00Z,30.3288,-87.8293,2.117,7.8,1111122 
DISL,ioos:station:DISL:BSCA:1,2016-04-04T01:00:00Z,30.3288,-87.8293,2.132,7.95,1111122 
DISL,ioos:station:DISL:BSCA:1,2016-04-04T01:30:00Z,30.3288,-87.8293,2.131,8.26,1111122 
DISL,ioos:station:DISL:BSCA:1,2016-04-04T02:00:00Z,30.3288,-87.8293,2.135,8.52,1111122 
DISL,ioos:station:DISL:BSCA:1,2016-04-04T02:30:00Z,30.3288,-87.8293,2.136,8.49,1111122 
DISL,ioos:station:DISL:BSCA:1,2016-04-04T03:00:00Z,30.3288,-87.8293,2.137,8.09,1111122 
DISL,ioos:station:DISL:BSCA:1,2016-04-04T03:30:00Z,30.3288,-87.8293,2.099,8.89,1111122 
DISL,ioos:station:DISL:BSCA:1,2016-04-04T04:00:00Z,30.3288,-87.8293,2.073,9.26,1111122 
DISL,ioos:station:DISL:BSCA:1,2016-04-04T04:30:00Z,30.3288,-87.8293,2.045,9.31,1111122 
DISL,ioos:station:DISL:BSCA:1,2016-04-04T05:00:00Z,30.3288,-87.8293,2.014,8.95,1111122 
DISL,ioos:station:DISL:BSCA:1,2016-04-04T05:30:00Z,30.3288,-87.8293,1.99,8.77,1111122 
DISL,ioos:station:DISL:BSCA:1,2016-04-04T06:00:00Z,30.3288,-87.8293,1.968,8.68,1111122 
DISL,ioos:station:DISL:BSCA:1,2016-04-04T06:30:00Z,30.3288,-87.8293,1.981,8.75,1111122 
DISL,ioos:station:DISL:BSCA:1,2016-04-04T07:00:00Z,30.3288,-87.8293,1.969,8.65,1111122 
DISL,ioos:station:DISL:BSCA:1,2016-04-04T07:30:00Z,30.3288,-87.8293,1.913,8.64,1111122 
DISL,ioos:station:DISL:BSCA:1,2016-04-04T08:00:00Z,30.3288,-87.8293,1.903,8.57,1111122 
DISL,ioos:station:DISL:BSCA:1,2016-04-04T08:30:00Z,30.3288,-87.8293,1.828,8.64,1111122 
DISL,ioos:station:DISL:BSCA:1,2016-04-04T09:00:00Z,30.3288,-87.8293,1.965,8.54,1111122 
DISL,ioos:station:DISL:BSCA:1,2016-04-04T09:30:00Z,30.3288,-87.8293,1.809,8.57,1111122 
DISL,ioos:station:DISL:BSCA:1,2016-04-04T10:00:00Z,30.3288,-87.8293,1.881,8.5,1111122 
DISL,ioos:station:DISL:BSCA:1,2016-04-04T10:30:00Z,30.3288,-87.8293,1.807,8.5,1111122 
DISL,ioos:station:DISL:BSCA:1,2016-04-04T11:00:00Z,30.3288,-87.8293,1.786,8.47,1111122 
DISL,ioos:station:DISL:BSCA:1,2016-04-04T11:30:00Z,30.3288,-87.8293,1.747,8.35,1111122 
DISL,ioos:station:DISL:BSCA:1,2016-04-04T12:00:00Z,30.3288,-87.8293,1.739,8.23,1111122 
DISL,ioos:station:DISL:BSCA:1,2016-04-04T12:30:00Z,30.3288,-87.8293,1.72,8.1,1111122 
DISL,ioos:station:DISL:BSCA:1,2016-04-04T13:00:00Z,30.3288,-87.8293,1.721,8.06,1111122 
DISL,ioos:station:DISL:BSCA:1,2016-04-04T13:30:00Z,30.3288,-87.8293,1.724,8.09,1111122 
DISL,ioos:station:DISL:BSCA:1,2016-04-04T14:00:00Z,30.3288,-87.8293,1.726,8.11,1111122 
DISL,ioos:station:DISL:BSCA:1,2016-04-04T14:30:00Z,30.3288,-87.8293,1.719,8.18,1111122 
DISL,ioos:station:DISL:BSCA:1,2016-04-04T15:00:00Z,30.3288,-87.8293,1.726,8.13,1111122 
DISL,ioos:station:DISL:BSCA:1,2016-04-04T15:30:00Z,30.3288,-87.8293,1.737,8.23,1111122 
DISL,ioos:station:DISL:BSCA:1,2016-04-04T16:00:00Z,30.3288,-87.8293,1.741,8.48,1111122 
DISL,ioos:station:DISL:BSCA:1,2016-04-04T16:30:00Z,30.3288,-87.8293,1.749,8.53,1111122 
DISL,ioos:station:DISL:BSCA:1,2016-04-04T17:00:00Z,30.3288,-87.8293,1.758,8.58,1111122 
DISL,ioos:station:DISL:BSCA:1,2016-04-04T17:30:00Z,30.3288,-87.8293,1.768,8.73,1111122 
DISL,ioos:station:DISL:BSCA:1,2016-04-04T18:00:00Z,30.3288,-87.8293,1.774,8.73,1111122 
DISL,ioos:station:DISL:BSCA:1,2016-04-04T18:30:00Z,30.3288,-87.8293,1.794,8.66,1111122 
DISL,ioos:station:DISL:BSCA:1,2016-04-04T19:00:00Z,30.3288,-87.8293,1.805,8.65,1111122 
DISL,ioos:station:DISL:BSCA:1,2016-04-04T19:30:00Z,30.3288,-87.8293,1.834,8.76,1111122 
DISL,ioos:station:DISL:BSCA:1,2016-04-04T20:00:00Z,30.3288,-87.8293,1.852,8.67,1111122 
DISL,ioos:station:DISL:BSCA:1,2016-04-04T20:30:00Z,30.3288,-87.8293,1.874,8.22,1111122 
DISL,ioos:station:DISL:BSCA:1,2016-04-04T21:00:00Z,30.3288,-87.8293,1.887,8.15,1111122 
DISL,ioos:station:DISL:BSCA:1,2016-04-04T21:30:00Z,30.3288,-87.8293,1.902,8.0,1111122 
DISL,ioos:station:DISL:BSCA:1,2016-04-04T22:00:00Z,30.3288,-87.8293,1.917,8.14,1111122 
DISL,ioos:station:DISL:BSCA:1,2016-04-04T22:30:00Z,30.3288,-87.8293,1.945,7.95,1111122 
DISL,ioos:station:DISL:BSCA:1,2016-04-04T23:00:00Z,30.3288,-87.8293,1.973,7.92,1111122 
DISL,ioos:station:DISL:BSCA:1,2016-04-04T23:30:00Z,30.3288,-87.8293,2.013,7.9,1111122 
DISL,ioos:station:DISL:BSCA:1,2016-04-05T00:00:00Z,30.3288,-87.8293,2.04,7.76,1111122 
DISL,ioos:station:DISL:BSCA:1,2016-04-05T00:30:00Z,30.3288,-87.8293,2.062,7.85,1111122 
DISL,ioos:station:DISL:BSCA:1,2016-04-05T01:00:00Z,30.3288,-87.8293,2.065,8.38,1111122 
DISL,ioos:station:DISL:BSCA:1,2016-04-05T01:30:00Z,30.3288,-87.8293,2.069,9.46,1111122 
DISL,ioos:station:DISL:BSCA:1,2016-04-05T02:00:00Z,30.3288,-87.8293,2.076,10.05,1111122 
DISL,ioos:station:DISL:BSCA:1,2016-04-05T02:30:00Z,30.3288,-87.8293,2.08,10.02,1111122 
DISL,ioos:station:DISL:BSCA:1,2016-04-05T03:00:00Z,30.3288,-87.8293,2.083,9.95,1111122 
DISL,ioos:station:DISL:BSCA:1,2016-04-05T03:30:00Z,30.3288,-87.8293,2.088,9.97,1111122 
DISL,ioos:station:DISL:BSCA:1,2016-04-05T04:00:00Z,30.3288,-87.8293,2.079,9.84,1111122 
DISL,ioos:station:DISL:BSCA:1,2016-04-05T04:30:00Z,30.3288,-87.8293,2.066,9.79,1111122 
DISL,ioos:station:DISL:BSCA:1,2016-04-05T05:00:00Z,30.3288,-87.8293,2.059,9.99,1111122 
DISL,ioos:station:DISL:BSCA:1,2016-04-05T05:30:00Z,30.3288,-87.8293,2.04,9.83,1111122 
DISL,ioos:station:DISL:BSCA:1,2016-04-05T06:00:00Z,30.3288,-87.8293,1.996,9.16,1111122 
DISL,ioos:station:DISL:BSCA:1,2016-04-05T06:30:00Z,30.3288,-87.8293,1.997,8.08,1111122 
DISL,ioos:station:DISL:BSCA:1,2016-04-05T07:00:00Z,30.3288,-87.8293,1.94,7.85,1111122 
DISL,ioos:station:DISL:BSCA:1,2016-04-05T07:30:00Z,30.3288,-87.8293,1.954,6.91,1111122 
DISL,ioos:station:DISL:BSCA:1,2016-04-05T08:00:00Z,30.3288,-87.8293,1.918,6.4,1111122 
DISL,ioos:station:DISL:BSCA:1,2016-04-05T08:30:00Z,30.3288,-87.8293,1.88,6.14,1111122 
DISL,ioos:station:DISL:BSCA:1,2016-04-05T09:00:00Z,30.3288,-87.8293,1.848,5.92,1111122 
DISL,ioos:station:DISL:BSCA:1,2016-04-05T09:30:00Z,30.3288,-87.8293,1.824,5.87,1111122 
DISL,ioos:station:DISL:BSCA:1,2016-04-05T10:00:00Z,30.3288,-87.8293,1.797,5.98,1111122 
DISL,ioos:station:DISL:BSCA:1,2016-04-05T10:30:00Z,30.3288,-87.8293,1.773,6.46,1111122 
DISL,ioos:station:DISL:BSCA:1,2016-04-05T11:00:00Z,30.3288,-87.8293,1.759,6.79,1111122 
DISL,ioos:station:DISL:BSCA:1,2016-04-05T11:30:00Z,30.3288,-87.8293,1.746,6.7,1111122 
DISL,ioos:station:DISL:BSCA:1,2016-04-05T12:00:00Z,30.3288,-87.8293,1.73,7.08,1111122 
DISL,ioos:station:DISL:BSCA:1,2016-04-05T12:30:00Z,30.3288,-87.8293,1.739,7.49,1111122 
DISL,ioos:station:DISL:BSCA:1,2016-04-05T13:00:00Z,30.3288,-87.8293,1.737,7.52,1111122 
DISL,ioos:station:DISL:BSCA:1,2016-04-05T13:30:00Z,30.3288,-87.8293,1.742,6.77,1111122 
DISL,ioos:station:DISL:BSCA:1,2016-04-05T14:00:00Z,30.3288,-87.8293,1.748,6.77,1111122 
DISL,ioos:station:DISL:BSCA:1,2016-04-05T14:30:00Z,30.3288,-87.8293,1.752,7.9,1111122 
DISL,ioos:station:DISL:BSCA:1,2016-04-05T15:00:00Z,30.3288,-87.8293,1.753,8.26,1111122 
DISL,ioos:station:DISL:BSCA:1,2016-04-05T15:30:00Z,30.3288,-87.8293,1.753,8.33,1111122 
DISL,ioos:station:DISL:BSCA:1,2016-04-05T16:00:00Z,30.3288,-87.8293,1.767,8.64,1111122 
DISL,ioos:station:DISL:BSCA:1,2016-04-05T16:30:00Z,30.3288,-87.8293,1.782,8.34,1111122 
DISL,ioos:station:DISL:BSCA:1,2016-04-05T17:00:00Z,30.3288,-87.8293,1.81,7.28,1111122 
DISL,ioos:station:DISL:BSCA:1,2016-04-05T17:30:00Z,30.3288,-87.8293,1.842,7.3,1111122 
DISL,ioos:station:DISL:BSCA:1,2016-04-05T18:00:00Z,30.3288,-87.8293,1.856,8.04,1111122 
DISL,ioos:station:DISL:BSCA:1,2016-04-05T18:30:00Z,30.3288,-87.8293,1.882,8.63,1111122 
DISL,ioos:station:DISL:BSCA:1,2016-04-05T19:00:00Z,30.3288,-87.8293,1.888,7.97,1111122 
DISL,ioos:station:DISL:BSCA:1,2016-04-05T19:30:00Z,30.3288,-87.8293,1.891,6.49,1111122 
DISL,ioos:station:DISL:BSCA:1,2016-04-05T20:00:00Z,30.3288,-87.8293,1.884,6.41,1111122 
DISL,ioos:station:DISL:BSCA:1,2016-04-05T20:30:00Z,30.3288,-87.8293,1.875,7.04,1111122 
DISL,ioos:station:DISL:BSCA:1,2016-04-05T21:00:00Z,30.3288,-87.8293,1.861,7.63,1111122 
DISL,ioos:station:DISL:BSCA:1,2016-04-05T21:30:00Z,30.3288,-87.8293,1.862,8.43,1111122 
DISL,ioos:station:DISL:BSCA:1,2016-04-05T22:00:00Z,30.3288,-87.8293,1.864,8.78,1111122 
DISL,ioos:station:DISL:BSCA:1,2016-04-05T22:30:00Z,30.3288,-87.8293,1.881,9.35,1111122 
DISL,ioos:station:DISL:BSCA:1,2016-04-05T23:00:00Z,30.3288,-87.8293,1.908,9.68,1111122 
DISL,ioos:station:DISL:BSCA:1,2016-04-05T23:30:00Z,30.3288,-87.8293,1.932,8.91,1111122 
DISL,ioos:station:DISL:BSCA:1,2016-04-06T00:00:00Z,30.3288,-87.8293,1.954,8.37,1111122 
DISL,ioos:station:DISL:BSCA:1,2016-04-06T00:30:00Z,30.3288,-87.8293,1.979,8.92,1111122 
DISL,ioos:station:DISL:BSCA:1,2016-04-06T01:00:00Z,30.3288,-87.8293,1.996,8.07,1111122 
DISL,ioos:station:DISL:BSCA:1,2016-04-06T01:30:00Z,30.3288,-87.8293,2.012,7.96,1111122 
DISL,ioos:station:DISL:BSCA:1,2016-04-06T02:00:00Z,30.3288,-87.8293,2.013,8.15,1111122 
DISL,ioos:station:DISL:BSCA:1,2016-04-06T02:30:00Z,30.3288,-87.8293,2.013,9.57,1111122 
DISL,ioos:station:DISL:BSCA:1,2016-04-06T03:00:00Z,30.3288,-87.8293,2.023,9.53,1111122 
DISL,ioos:station:DISL:BSCA:1,2016-04-06T03:30:00Z,30.3288,-87.8293,2.032,9.28,1111122 
DISL,ioos:station:DISL:BSCA:1,2016-04-06T04:00:00Z,30.3288,-87.8293,2.053,9.45,1111122 
DISL,ioos:station:DISL:BSCA:1,2016-04-06T04:30:00Z,30.3288,-87.8293,2.06,9.53,1111122 
DISL,ioos:station:DISL:BSCA:1,2016-04-06T05:00:00Z,30.3288,-87.8293,2.055,9.77,1111122 
DISL,ioos:station:DISL:BSCA:1,2016-04-06T05:30:00Z,30.3288,-87.8293,2.044,9.56,1111122 
DISL,ioos:station:DISL:BSCA:1,2016-04-06T06:00:00Z,30.3288,-87.8293,2.025,9.47,1111122 
DISL,ioos:station:DISL:BSCA:1,2016-04-06T06:30:00Z,30.3288,-87.8293,1.996,9.21,1111122 
DISL,ioos:station:DISL:BSCA:1,2016-04-06T07:00:00Z,30.3288,-87.8293,1.972,8.85,1111122 
DISL,ioos:station:DISL:BSCA:1,2016-04-06T07:30:00Z,30.3288,-87.8293,1.938,8.07,1111122 
DISL,ioos:station:DISL:BSCA:1,2016-04-06T08:00:00Z,30.3288,-87.8293,1.904,7.4,1111122 
DISL,ioos:station:DISL:BSCA:1,2016-04-06T08:30:00Z,30.3288,-87.8293,1.877,6.64,1111122 
DISL,ioos:station:DISL:BSCA:1,2016-04-06T09:00:00Z,30.3288,-87.8293,1.849,7.12,1111122 
DISL,ioos:station:DISL:BSCA:1,2016-04-06T09:30:00Z,30.3288,-87.8293,1.83,7.79,1111122 
DISL,ioos:station:DISL:BSCA:1,2016-04-06T10:00:00Z,30.3288,-87.8293,1.825,7.04,1111122 
DISL,ioos:station:DISL:BSCA:1,2016-04-06T10:30:00Z,30.3288,-87.8293,1.81,7.28,1111122 
DISL,ioos:station:DISL:BSCA:1,2016-04-06T11:00:00Z,30.3288,-87.8293,1.796,7.18,1111122 
DISL,ioos:station:DISL:BSCA:1,2016-04-06T11:30:00Z,30.3288,-87.8293,1.795,7.89,1111122 
DISL,ioos:station:DISL:BSCA:1,2016-04-06T12:00:00Z,30.3288,-87.8293,1.793,6.85,1111122 
DISL,ioos:station:DISL:BSCA:1,2016-04-06T12:30:00Z,30.3288,-87.8293,1.801,6.37,1111122 
DISL,ioos:station:DISL:BSCA:1,2016-04-06T13:00:00Z,30.3288,-87.8293,1.808,6.9,1111122 
DISL,ioos:station:DISL:BSCA:1,2016-04-06T13:30:00Z,30.3288,-87.8293,1.819,7.77,1111122 
DISL,ioos:station:DISL:BSCA:1,2016-04-06T14:00:00Z,30.3288,-87.8293,1.829,8.09,1111122 
DISL,ioos:station:DISL:BSCA:1,2016-04-06T14:30:00Z,30.3288,-87.8293,1.833,9.01,1111122 
DISL,ioos:station:DISL:BSCA:1,2016-04-06T15:00:00Z,30.3288,-87.8293,1.862,9.12,1111122 
DISL,ioos:station:DISL:BSCA:1,2016-04-06T15:30:00Z,30.3288,-87.8293,1.891,9.0,1111122 